DW4326 Weather Reports


time (UTC)temp
C
wind
direction
speed
KPH
gust
KPH
rain 1hr
cm
rain 24hr
cm
rain mn
cm
humidity
%
barometer
mb
20260904094943 11 355 0.0 0.0 0.00 0.00 0.00 98 1010.4
20260904093445 11 355 0.0 0.0 0.00 0.00 0.00 98 1010.4
20260904091942 11 355 0.0 0.0 0.00 0.00 0.00 97 1010.4
20260904090439 12 355 0.0 0.0 0.00 0.00 0.00 97 1010.4
20260904084937 12 355 0.0 0.0 0.00 0.00 0.00 97 1010.4
20260904083437 12 355 0.0 0.0 0.00 0.00 0.00 97 1010.5
20260904081936 12 355 0.0 0.0 0.00 0.00 0.00 97 1010.4
20260904080438 12 355 0.0 0.0 0.00 0.00 0.00 97 1010.2
20260904074937 12 355 0.0 0.0 0.00 0.00 0.00 97 1010.3
20260904073438 12 355 0.0 0.0 0.00 0.00 0.00 97 1010.2
20260904071935 12 355 0.0 0.0 0.00 0.00 0.00 97 1010.3
20260904070434 12 355 0.0 0.0 0.00 0.00 0.00 97 1010.4
20260904064933 12 355 0.0 0.0 0.00 0.00 0.00 97 1010.4
20260904063433 13 355 0.0 0.0 0.00 0.00 0.00 97 1010.7
20260904061934 13 355 0.0 0.0 0.00 0.00 0.00 97 1010.7
20260904061133 13 355 0.0 0.0 0.00 0.00 0.00 97 1010.9
20260904054928 13 355 0.0 0.0 0.00 0.03 0.00 96 1011.0
20260904053428 13 355 0.0 0.0 0.00 0.18 0.00 97 1011.2
20260904051926 13 355 0.0 0.0 0.00 0.18 0.00 97 1011.3
20260904050427 13 355 0.0 0.0 0.00 0.18 0.00 96 1011.3
20260904045631 14 355 0.0 0.0 0.00 0.18 0.00 96 1011.4
20260904043427 14 355 0.0 0.0 0.00 0.18 0.00 96 1011.4
20260904041927 14 355 0.0 0.0 0.00 0.18 0.00 96 1011.4
20260904040428 15 355 0.0 0.0 0.00 0.18 0.00 96 1011.5
20260904034927 15 355 0.0 0.0 0.00 0.18 0.18 96 1011.4
20260904033427 15 355 0.0 0.0 0.00 0.18 0.18 96 1011.6
20260904032620 15 355 0.0 0.0 0.00 0.18 0.18 96 1011.3
20260904030427 15 355 0.0 0.0 0.00 0.18 0.18 95 1011.7
20260904024927 16 355 0.0 0.0 0.00 0.18 0.18 95 1011.5
20260904023427 16 355 0.0 0.0 0.00 0.18 0.18 95 1011.6
20260904021926 16 355 0.0 0.0 0.00 0.18 0.18 95 1011.5
20260904020428 16 355 0.0 0.0 0.00 0.18 0.18 95 1011.5
20260904014925 16 355 0.0 0.0 0.00 0.18 0.18 95 1011.8
20260904013427 17 355 0.0 0.0 0.00 0.18 0.18 95 1011.6
20260904011925 17 355 0.0 0.0 0.00 0.18 0.18 95 1011.7
20260904010426 17 355 0.0 0.0 0.00 0.18 0.18 95 1011.8
20260904004927 17 355 0.0 0.0 0.00 0.18 0.18 94 1011.5
20260904003425 18 355 0.0 0.0 0.00 0.18 0.18 94 1011.4
20260904001926 18 355 0.0 0.0 0.00 0.18 0.18 93 1010.9
20260904000427 18 355 0.0 0.0 0.00 0.18 0.18 93 1011.0
20260903234927 19 355 0.0 0.0 0.00 0.18 0.18 92 1010.7
20260903233426 20 355 0.0 0.0 0.00 0.18 0.18 92 1010.7
20260903231926 20 355 0.0 0.0 0.00 0.18 0.18 92 1010.4
20260903230426 21 355 0.0 0.0 0.00 0.18 0.18 91 1010.6
20260903224926 21 355 0.0 0.0 0.00 0.18 0.18 90 1010.5
20260903223426 22 355 0.0 0.0 0.00 0.18 0.18 88 1010.6
20260903221924 22 355 0.0 0.0 0.00 0.18 0.18 87 1010.6
20260903220423 22 355 0.0 0.0 0.00 0.18 0.18 87 1010.7
20260903214923 22 15 0.0 1.6 0.00 0.18 0.18 86 1010.9
20260903213423 23 13 0.0 0.0 0.00 0.18 0.18 84 1010.9
20260903212515 24 165 0.0 4.8 0.00 0.18 0.18 82 1010.7
20260903211939 23 13 0.0 8.0 0.00 0.18 0.18 83 1010.8
20260903204923 24 182 0.0 4.8 0.00 0.18 0.18 81 1010.6
20260903204120 23 200 0.0 8.0 0.00 0.18 0.18 82 1010.7
20260903202612 23 196 4.8 14.5 0.00 0.18 0.18 81 1010.6
20260903200417 23 167 0.0 9.7 0.00 0.18 0.18 82 1010.9
20260903194918 24 198 3.2 11.3 0.00 0.18 0.18 81 1010.8
20260903193417 23 200 0.0 14.5 0.00 0.18 0.18 80 1011.1
20260903191917 24 192 6.4 14.5 0.00 0.18 0.18 80 1011.1
20260903190426 23 195 4.8 9.7 0.00 0.18 0.18 82 1011.2
20260903185612 23 209 1.6 6.4 0.00 0.18 0.18 82 1011.4
20260903183416 23 193 0.0 0.0 0.00 0.18 0.18 83 1011.5
20260903181913 23 221 0.0 0.0 0.00 0.18 0.18 82 1011.7
20260903180413 22 196 0.0 0.0 0.00 0.18 0.18 86 1011.9
20260903174912 21 196 0.0 1.6 0.00 0.18 0.18 86 1012.2
20260903174130 20 208 0.0 4.8 0.00 0.18 0.18 88 1012.2
20260903171911 20 186 0.0 3.2 0.00 0.18 0.18 89 1012.4
20260903170408 20 197 0.0 0.0 0.00 0.18 0.18 89 1012.6
20260903164908 19 185 0.0 0.0 0.00 0.18 0.18 90 1012.6
20260903163408 18 202 0.0 0.0 0.00 0.18 0.18 92 1012.8
20260903161907 18 196 0.0 0.0 0.00 0.18 0.18 93 1012.8
20260903160407 18 197 0.0 0.0 0.00 0.18 0.18 92 1013.0
20260903154907 17 200 0.0 0.0 0.00 0.18 0.18 93 1013.1
20260903153407 17 200 0.0 0.0 0.00 0.18 0.18 94 1013.4
20260903151905 17 199 0.0 0.0 0.00 0.18 0.18 95 1013.7
20260903150405 17 199 0.0 3.2 0.00 0.18 0.18 94 1013.5
20260903144904 17 198 0.0 6.4 0.00 0.18 0.18 95 1013.8
20260903143403 16 196 0.0 0.0 0.00 0.18 0.18 97 1014.0
20260903141904 16 196 0.0 0.0 0.00 0.18 0.18 97 1014.0
20260903140408 16 196 0.0 0.0 0.00 0.18 0.18 96 1014.0
20260903134901 16 196 0.0 0.0 0.00 0.18 0.18 96 1014.0
20260903133359 16 196 0.0 0.0 0.00 0.18 0.18 96 1014.0
20260903131858 16 196 0.0 0.0 0.00 0.18 0.18 97 1013.9
20260903130359 16 196 0.0 1.6 0.00 0.18 0.18 96 1013.8
20260903124858 16 196 0.0 1.6 0.00 0.18 0.18 96 1013.9
20260903123358 15 195 0.0 3.2 0.00 0.18 0.18 97 1014.0
20260903121858 15 194 0.0 3.2 0.00 0.18 0.18 97 1014.1
20260903120359 15 199 0.0 4.8 0.00 0.18 0.18 97 1014.0
20260903114858 15 199 0.0 3.2 0.00 0.18 0.18 97 1014.2
20260903113358 15 199 0.0 0.0 0.00 0.18 0.18 97 1014.2
20260903111858 15 199 0.0 0.0 0.00 0.18 0.18 97 1014.2
20260903110356 15 199 0.0 3.2 0.00 0.18 0.18 97 1014.1
20260903104853 15 200 0.0 1.6 0.00 0.18 0.18 97 1014.3
20260903103353 15 200 0.0 3.2 0.00 0.18 0.18 97 1014.0
20260903101851 15 199 0.0 3.2 0.00 0.18 0.18 97 1014.0
20260903100350 15 199 0.0 6.4 0.00 0.18 0.18 97 1013.9